Location: Sulphur Springs (historical)
(38.1246°N, 122.1900°W)
Time: 05:19:23
(UTC+00:00)

Cosmos 2026 Rocket - Pass Details

Date: 29 October 2020
Orbit: 938 x 1002 km, 82.9° (Epoch: 29 November)

Event Time Altitude Azimuth Distance (km) Brightness Sun altitude
Rises 12:57:52 0° 187° (S) 3,702 7.0 -19.1°
Reaches altitude 10° 13:00:22 10° 188° (S) 2,760 6.3 -18.6°
Maximum altitude 13:06:44 84° 276° (W) 1,012 4.0 -17.3°
Drops below altitude 10° 13:13:09 10° 5° (N) 2,776 6.4 -16.1°
Sets 13:15:41 0° 7° (N) 3,725 7.1 -15.6°
